www.pogodaiklimat.ru

Погода и климат >> Архив погоды >> Россия >> Хабаровский край >> Троицкое


ПОГОДА в Троицком

  • Прогноз погоды в Троицком
  • Монитор погоды в Троицком

АРХИВ ПОГОДЫ в Троицком

Время (UTC), дата Ветер
(напр.,м/с)
 
Видим.   Явления Облачность Т
(С)
Тd
(С)
f
(%)
Тe
(С)
Тes
(С)
Комфортность P
(гПа)
Po
(гПа)
Тmin
(С)
Tmax
(С)
R
(мм)
R24
(мм)
S
(см)
09 13.06 СВ 2 2000 м слаб. дождь 10/6 600 м
[Frnb As op]
+12.6 +11.1 91 +12 +12 1005.0 1001.1 +13.2 19
12 13.06 СВ 4 2000 м слаб. дождь 10/6 600 м
[Frnb As op]
+12.6 +11.1 91 +11 +11 1005.0 1001.1
15 13.06 СВ 2
{10}
2000 м слаб. дождь 10/6 600 м
[Frnb As op]
+11.5 +9.9 90 +10 +10 1004.0 1000.0
18 13.06 СВ 5-11
{13}
2000 м слаб. дождь 10/6 600 м
[Frnb As op]
+10.5 +8.7 89 +7 +7 1003.6 999.7
21 13.06 СВ 3-10
{13}
2000 м слаб. дождь 10/6 600 м
[Frnb As op]
+10.1 +8.5 90 +8 +8 1003.5 999.6 +10.1 9
00 14.06 С 2
{11}
2000 м слаб. ливневой дождь 10/10 600 м
[Cb cap]
+10.0 +8.2 89 +8 +8 1004.4 1000.4 +9.8
03 14.06 СВ 3-10
{14}
10 км слаб. ливневой дождь 10/10 600 м
[Cb cap]
+10.2 +8.0 86 +8 +8 1006.3 1002.3
06 14.06 С 2
{13}
10 км слаб. ливневой дождь 10/10 600 м
[Cb cap]
+11.1 +8.9 86 +10 +10 1007.6 1003.6
09 14.06 С 2
{10}
20 км {ливн. осадки} 10/10 600 м
[Cb cap]
+10.6 +8.7 88 +9 +9 1009.4 1005.4 +11.6 7
12 14.06 С 1
{10}
20 км {ливн. осадки} 10/10 600 м
[Cb cap]
+10.2 +7.9 86 +10 +10 1011.3 1007.3
15 14.06 С 1 20 км 3/3 600 м
[Cb cap]
+9.8 +7.5 86 +9 +9 1012.2 1008.2
18 14.06 С 1 20 км 3/3 600 м
[Cb cap]
+8.8 +6.2 84 +8 +8 1012.8 1008.8
21 14.06 СВ 1 50 км 10/10 600 м
[Cb cap]
+8.5 +5.4 81 +8 +8 1014.0 1009.9 +7.9
00 15.06 СВ 2
{12}
50 км 9/9 600 м
[Cb cap]
+10.2 +5.9 75 +9 +10 1015.1 1011.1
03 15.06 С 2 50 км 8/8 600 м
[Cb cap]
+12.4 +6.2 66 +12 +15 1015.1 1011.1
06 15.06 СВ 2 50 км 8/8 600 м
[Cb cap]
+14.6 +6.1 57 +14 +17 1014.1 1010.2
09 15.06 С 2 50 км 3/3 600 м
[Cu Sc]
+14.5 +4.9 52 +14 +16 1014.0 1010.0 +15.9
12 15.06 СВ 2 50 км 3/3 600 м
[Sc]
+12.1 +6.2 67 +11 +11 1014.9 1010.9
15 15.06 СВ 4 50 км ясно +10.5 +5.5 71 +8 +8 1014.8 1010.8
18 15.06 СВ 1 50 км ясно +7.4 +5.2 86 +6 +6 1014.6 1010.5
21 15.06 С 1 50 км ясно +8.9 +5.0 77 +8 +11 1014.2 1010.1 +7.2
00 16.06 СВ 3 50 км ясно +12.8 +4.5 57 +12 +22 1013.4 1009.5
03 16.06 С 1 50 км 3/0
[Ci fib]
+17.4 +6.3 48 +18 +38 опасность
простуды
1010.8 1006.9
06 16.06 С 1 50 км 6/0
[Ci fib]
+19.7 +8.0 47 +22 +33 комфорт 1008.7 1004.9
09 16.06 С 1 50 км 3/0
[Ci fib]
+18.2 +6.3 46 +19 +21 1007.1 1003.2 +19.9
12 16.06 СВ 1 50 км 3/0
[Ci fib]
+12.8 +7.3 69 +13 +13 1007.1 1003.1
15 16.06 СВ 1 50 км 3/0
[Ci fib]
+11.7 +6.6 71 +12 +12 1006.6 1002.6
18 16.06 СВ 1 50 км ясно +9.6 +5.9 78 +9 +9 1007.7 1003.7
21 16.06 СВ 4 50 км 3/0
[Ci fib]
+11.0 +6.6 74 +9 +10 1008.1 1004.1 +9.3
00 17.06 СВ 3 50 км 6/0
[Ci]
+14.7 +5.7 55 +14 +23 1008.2 1004.2
03 17.06 СВ 3 50 км 6/0
[Ci sp]
+17.8 +7.0 49 +18 +31 опасность
простуды
1007.5 1003.6
06 17.06 штиль 0 50 км 10/0
[Cs]
+18.5 +8.4 52 +19 +31 опасность
простуды
1007.2 1003.4
09 17.06 С 1 50 км 4/0
[Ci sp]
+19.7 +7.4 45 +22 +24 комфорт 1006.9 1003.0 +20.7
12 17.06 штиль 0 50 км 3/0
[Cs]
+11.3 +8.5 83 +11 +11 1007.5 1003.5
15 17.06 ЮЗ 1 50 км ясно +7.1 +5.5 90 +6 +6 1007.4 1003.4
18 17.06 Ю 2 50 км 3/0
[Ci fib]
+6.7 +5.5 92 +4 +4 1006.6 1002.6
21 17.06 Ю 3 50 км 4/0
[Ci fib]
+9.6 +8.1 90 +7 +9 1006.1 1002.1 +5.9
00 18.06 Ю 3 50 км 8/0
[Ci fib]
+16.3 +10.6 69 +16 +24 1005.0 1001.2
03 18.06 ЮЗ 4 50 км 6/0
[Cs]
+21.1 +10.3 50 +23 +33 комфорт 1002.8 998.9
06 18.06 ЮЗ 4
{10}
50 км 3/3 600 м
[Cu med, cong Ci fib]
+22.9 +11.2 48 +25 +30 комфорт 1000.5 996.7
09 18.06 ЮЗ 4
{10}
50 км 1/1 1000 м
[Cu med, cong]
+21.9 +10.2 47 +24 +25 комфорт 999.9 996.1 +23.2
12 18.06 ЮЗ 4 50 км ясно +17.6 +9.8 60 +17 +17 1000.7 996.8
15 18.06 Ю 4 50 км ясно +14.9 +10.6 75 +14 +14 1000.5 996.6
18 18.06 Ю 4 50 км 3/3 600 м
[Cb cap]
+13.2 +10.3 83 +11 +11 1000.6 996.7
21 18.06 Ю 1 20 км 9/4 600 м
[Cb cap Ac trans]
+14.2 +11.0 81 +15 +15 1002.1 998.2 +12.8
00 19.06 СВ 1 50 км 8/6 600 м
[Cb cap Ci fib]
+16.7 +11.2 70 +18 +23 1002.4 998.5
03 19.06 СВ 3 50 км 8/8 600 м
[Cu med, cong]
+19.5 +13.1 66 +21 +24 комфорт 1002.0 998.2
06 19.06 СВ 1 50 км 10/10 600 м
[Cb cap]
+16.7 +12.2 75 +18 +18 1001.8 997.9
09 19.06 СВ 3 50 км 3/3 600 м
[Sc]
+16.9 +11.2 69 +17 +18 1002.4 998.5 +19.5
12 19.06 СВ 2 50 км 3/3 600 м
[Sc]
+13.0 +9.3 78 +12 +12 1004.3 1000.4
15 19.06 СВ 5 50 км ясно +12.4 +8.5 77 +10 +10 1004.2 1000.3
18 19.06 СВ 5
{11}
50 км ясно +12.2 +8.5 78 +10 +10 1004.5 1000.6
21 19.06 СВ 6-11
{13}
50 км ясно +13.0 +9.0 77 +11 +12 1005.4 1001.5 +12.0
00 20.06 СВ 3
{12}
50 км 3/0
[Ci fib]
+16.5 +9.9 65 +16 +26 1005.8 1001.9
03 20.06 СВ 1 50 км 4/3 600 м
[Cu med, cong Ci fib]
+20.7 +12.2 58 +24 +38 комфорт 1005.5 1001.7

 

Местоположение метеостанции Троицкое (Хабаровский край, Россия): широта 49.45 долгота 136.56 высота над уровнем моря 37 м.

В архиве по умолчанию представлена погода в Троицком за последнюю неделю. Архивные данные за месяц целиком и за предыдущие месяцы, начиная с января 2011 года, Вы можете получить, выбрав интересующий диапазон дат из раскрывающегося списка и нажав кнопку "Ввод!".


*Определитесь, кто Вы:
робот инопланетянин человек

Внимание! Время в таблицах - всемирное. Для получения местного времени необходимо прибавить поправку, которая равна 10 ч.

Смотрите также архив погоды в соседних городах и на ближайших метеорологических станциях:

Погода в Елабуге (Хабаровский край, Россия) (89 км)
Погода в Тивяку (Хабаровский край, Россия) (100 км)
Погода в Амурске (Хабаровский край, Россия) (101 км)
Погода в Литовко (Хабаровский край, Россия) (109 км)
Погода в Солекуль (Хабаровский край, Россия) (109 км)
Погода в Комсомольске-на-Амуре (Хабаровский край, Россия) (124 км)
Погода в Князе-Волконском (Хабаровский край, Россия) (134 км)
Погода в Хабаровске 21 км (Хабаровский край, Россия) (140 км)
Погода в Хабаровске (Хабаровский край, Россия) (149 км)
Погода в Хабаровске Агромет (Хабаровский край, Россия) (149 км)

Пояснения к столбцам:

Ветер - указаны скорость ветра в м/с - средняя за 10 мин, порывы в срок и между сроками (в фигурных скобках) и направление, откуда дует ветер: С - северный, СВ - северо-восточный, В - восточный, ЮВ - юго-восточный, Ю - южный, ЮЗ - юго-западный, З - западный, СЗ - северо-западный.
Видимость - горизонтальная дальность видимости в метрах или километрах. При видимости от 1 до 10 км при отсутствии осадков обычно наблюдается дымка, при ухудшении видимости до 1 км и менее - туман. В сухую погоду видимость может ухудшаться дымом, пылью или мглою.
Явления - указаны атмосферные явления, наблюдавшиеся в срок или в последний час перед сроком; фигурными скобками обозначены явления, наблюдавшиеся между сроками (за 1-3 часа до срока); квадратными скобками обозначены град или гололедные отложения с указанием их диаметра в мм.
Облачность - указаны через наклонную черту общая и нижняя облачность в баллах и высота нижней границы облаков в метрах; квадратными скобками обозначены формы облаков: Ci - перистые, Cs - перисто-слоистые, Cc - перисто-кучевые, Ac - высококучевые, As - высокослоистые, Sc - слоисто-кучевые, Ns - слоисто-дождевые, Cu - кучевые, Cb - кучево-дождевые. Подробнее классификацию облаков см. в Атласе облаков (PDF).
T - Температура воздуха - температура, измеренная на высоте 2 м над землей.
Td - Температура точки росы - температура, при понижении до которой содержащийся в воздухе водяной пар достигнет насыщения.
f - Относительная влажность воздуха - влажноcть воздуха, измеренная на высоте 2 м над землей.
Te - Эффективная температура - температура, которую ощущает одетый по сезону человек в тени. Характеристика душности погоды. При расчете учитывается влияние влажности воздуха и скорости ветра на теплоощущения человека.
Tes - Эффективная температура на солнце - температура, которую ощущает человек, с поправкой на солнечный нагрев. Характеристика знойности погоды. Зависит от высоты солнца над горизонтом, облачности и скорости ветра. Ночью, в пасмурную погоду, а также при ветре 12 м/с и более поправка равна нулю.
P - Атмосферное давление - приведенное к уровню моря атмосферное давление.
Po - Атмосферное давление - измеренное на уровне метеостанции атмосферное давление.
Tmin - Минимальная температура - минимум температуры воздуха на высоте 2 м над землей.
Tmax - Максимальная температура - максимум температуры воздуха на высоте 2 м над землей.
R - Количество осадков - Количество выпавших осадков за период времени, мм. При наведении курсора мыши на число - период времени, за который выпало указанное количество осадков.
R24 - Количество осадков - Количество выпавших осадков за 24 часа, мм.
S - Снежный покров - Высота снежного покрова, см. При наведении курсора мыши на число - состояние снежного покрова и степень покрытия местности в баллах.